Port Angeles, WA

10:05 AM PDT on May 26, 2017 (GMT -0700)
Fairchild International

Weather History for KCLM - May, 2013

Change the Weather History Date:

Thursday, May 16, 2013

  Actual Average Record
Temperature  
Mean Temperature 53 °F -  
Max Temperature 62 °F 61 °F 76 °F (1956)
Min Temperature 45 °F 44 °F 33 °F (2002)
Degree Days  
Heating Degree Days 12    
Growing Degree Days 3 (Base 50)    
Moisture  
Dew Point 49 °F    
Average Humidity 91    
Maximum Humidity 100    
Minimum Humidity 64    
Precipitation  
Precipitation 0.01 in - - ()
Sea Level Pressure  
Sea Level Pressure 29.98 in    
Wind  
Wind Speed 2 mph (ENE)    
Max Wind Speed 8 mph    
Max Gust Speed -    
Visibility 5 miles    
Events Fog , Rain    
Averages and records for this station are not official NWS values.
T = Trace of Precipitation, MM = Missing Value Source: NWS Daily Summary

Daily Weather History Graph

Daily Weather History Graph

Search for Another Location

Airport or City:

Trip Planner

Search our weather history database for the weather conditions in past years. The results will help you decide how hot, cold, wet, or windy it might be!

Date:

Astronomy

May. 16, 2013 Rise Set
Actual Time 5:33 AM PDT 8:48 PM PDT
Civil Twilight 4:55 AM PDT 9:26 PM PDT
Nautical Twilight 4:06 AM PDT 10:15 PM PDT
Astronomical Twilight 3:04 AM PDT 11:18 PM PDT
Moon 11:21 AM PDT (5/16) 1:04 AM PDT (5/16)
Length of Visible Light 16h 30m
Length of Day
15h 15m
Waxing Crescent, 36% of the Moon is Illuminated
May 16
Waxing Crescent
May 17
First Quarter
May 24
Full
May 31
Last Quarter
Jun 8
New

Hourly Weather History & Observations

Time (PDT) Temp. Dew Point Humidity Pressure Visibility Wind Dir Wind Speed Gust Speed Precip Events Conditions
12:53 AM 50.0 °F 46.9 °F 89% 30.01 in 10.0 mi Calm Calm - 0.00 in Rain Light Rain
1:53 AM 48.0 °F 46.9 °F 96% 30.01 in 9.0 mi Calm Calm - 0.00 in   Overcast
2:53 AM 48.0 °F 46.9 °F 96% 30.00 in 6.0 mi Calm Calm - N/A   Overcast
3:30 AM 48.0 °F 46.9 °F 96% 29.99 in 5.0 mi Calm Calm - 0.01 in   Overcast
3:53 AM 48.0 °F 46.9 °F 96% 29.99 in 6.0 mi Calm Calm - 0.01 in   Overcast
4:49 AM 46.4 °F 46.4 °F 100% 29.99 in 1.5 mi Calm Calm - N/A   Mostly Cloudy
4:53 AM 46.9 °F 46.0 °F 97% 29.99 in 1.0 mi Calm Calm - N/A   Mostly Cloudy
5:07 AM 46.9 °F 45.0 °F 93% 29.99 in 2.5 mi SSE 3.5 mph - N/A   Partly Cloudy
5:14 AM 46.9 °F 46.0 °F 97% 29.99 in 3.0 mi South 3.5 mph - N/A   Partly Cloudy
5:19 AM 46.0 °F 46.0 °F 100% 29.99 in 1.8 mi Calm Calm - N/A   Partly Cloudy
5:28 AM 46.0 °F 45.0 °F 96% 29.99 in 0.5 mi Calm Calm - N/A Fog Fog
5:43 AM 45.0 °F 44.1 °F 97% 29.99 in 0.2 mi Calm Calm - N/A Fog Fog
5:53 AM 45.0 °F 44.1 °F 97% 29.99 in 0.2 mi Calm Calm - N/A Fog Fog
6:07 AM 46.0 °F 45.0 °F 96% 29.99 in 1.0 mi Calm Calm - N/A   Overcast
6:16 AM 46.0 °F 45.0 °F 96% 29.99 in 2.0 mi Calm Calm - N/A   Overcast
6:28 AM 46.4 °F 44.6 °F 93% 29.99 in 4.0 mi Calm Calm - N/A   Overcast
6:37 AM 46.9 °F 46.0 °F 97% 29.99 in 3.0 mi Calm Calm - N/A   Overcast
6:53 AM 48.0 °F 46.0 °F 93% 30.00 in 10.0 mi Calm Calm - N/A   Overcast
7:34 AM 48.9 °F 48.0 °F 97% 30.00 in 1.8 mi Calm Calm - N/A   Overcast
7:46 AM 50.0 °F 48.9 °F 96% 30.00 in 0.8 mi Calm Calm - N/A   Overcast
7:53 AM 50.0 °F 48.9 °F 96% 30.00 in 0.2 mi Calm Calm - N/A Fog Fog
8:03 AM 50.0 °F 48.9 °F 96% 30.00 in 1.0 mi Calm Calm - N/A   Overcast
8:10 AM 51.1 °F 48.9 °F 92% 30.00 in 0.2 mi Calm Calm - N/A Fog Fog
8:53 AM 51.1 °F 50.0 °F 96% 30.00 in 0.2 mi East 4.6 mph - N/A Fog Fog
9:16 AM 52.0 °F 51.1 °F 97% 30.00 in 1.0 mi ESE 3.5 mph - N/A   Overcast
9:21 AM 51.1 °F 50.0 °F 96% 30.00 in 3.0 mi ESE 4.6 mph - N/A   Overcast
9:32 AM 51.1 °F 50.0 °F 96% 30.00 in 1.5 mi East 4.6 mph - N/A   Overcast
9:53 AM 51.1 °F 50.0 °F 96% 30.00 in 4.0 mi East 6.9 mph - N/A   Overcast
10:02 AM 52.0 °F 51.1 °F 97% 30.00 in 2.5 mi ESE 4.6 mph - N/A   Overcast
10:09 AM 52.0 °F 50.0 °F 93% 30.00 in 8.0 mi East 4.6 mph - N/A   Overcast
10:14 AM 52.0 °F 50.0 °F 93% 29.99 in 1.8 mi East 5.8 mph - N/A   Overcast
10:25 AM 52.0 °F 51.1 °F 97% 30.00 in 3.0 mi East 4.6 mph - N/A   Overcast
10:51 AM 51.8 °F 51.8 °F 100% 29.99 in 1.8 mi East 5.8 mph - N/A   Overcast
10:53 AM 52.0 °F 51.1 °F 97% 30.00 in 1.5 mi ENE 3.5 mph - N/A   Overcast
11:01 AM 53.1 °F 51.1 °F 93% 29.99 in 4.0 mi East 4.6 mph - N/A   Overcast
11:43 AM 54.0 °F 51.1 °F 90% 29.99 in 10.0 mi NNE 5.8 mph - N/A   Overcast
11:53 AM 53.1 °F 50.0 °F 89% 30.00 in 10.0 mi NNE 4.6 mph - N/A   Overcast
12:53 PM 55.9 °F 52.0 °F 87% 29.99 in 10.0 mi Variable 4.6 mph - N/A   Overcast
1:28 PM 57.0 °F 51.1 °F 81% 29.97 in 10.0 mi NNE 6.9 mph - N/A   Scattered Clouds
1:53 PM 55.9 °F 52.0 °F 87% 29.97 in 10.0 mi Variable 4.6 mph - N/A   Scattered Clouds
2:53 PM 59.0 °F 51.1 °F 75% 29.96 in 10.0 mi Variable 6.9 mph - N/A   Overcast
3:53 PM 61.0 °F 48.9 °F 64% 29.94 in 10.0 mi ENE 6.9 mph - N/A   Clear
4:53 PM 60.1 °F 48.0 °F 64% 29.93 in 10.0 mi NNE 3.5 mph - N/A   Clear
5:53 PM 60.1 °F 50.0 °F 69% 29.92 in 10.0 mi Calm Calm - N/A   Overcast
6:53 PM 57.0 °F 50.0 °F 77% 29.91 in 10.0 mi NNW 4.6 mph - N/A   Overcast
7:53 PM 55.0 °F 50.0 °F 83% 29.92 in 10.0 mi West 3.5 mph - N/A   Overcast
8:53 PM 54.0 °F 51.1 °F 90% 29.92 in 10.0 mi West 4.6 mph - 0.00 in   Mostly Cloudy
9:53 PM 55.0 °F 52.0 °F 89% 29.94 in 10.0 mi WNW 4.6 mph - N/A   Overcast
10:53 PM 55.0 °F 50.0 °F 83% 29.94 in 10.0 mi WSW 6.9 mph - N/A   Mostly Cloudy
11:53 PM 55.0 °F 48.9 °F 80% 29.94 in 10.0 mi West 8.1 mph - N/A   Mostly Cloudy